Location: Hylvaty SDH
(49.9612°N, 16.4057°E)
Time: 12:01:04
(UTC+01:00)

Tiros 1 - Pass Details

Date: 07 October 2020
Orbit: 630 x 663 km, 48.4° (Epoch: 28 October)

Event Time Altitude Azimuth Distance (km) Brightness Sun altitude
Rises 12:21:52 0° 221° (SW) 2,920 11.1 34.1°
Reaches altitude 10° 12:24:22 10° 211° (SSW) 2,019 10.6 34.1°
Maximum altitude 12:28:26 31° 149° (SSE) 1,130 10.0 34.2°
Drops below altitude 10° 12:32:34 10° 88° (E) 2,045 9.8 34.2°
Sets 12:35:07 0° 78° (ENE) 2,964 10.5 34.3°
